Theta_e
338 356 362 363 362 362 362 363 364 364 364 364 364 362 361 362 363 363 362 360 360 358 357 354 351 349 347 344 342 342 342 345 350 353 354 354 354 354 353 351 350 351 352
342 357 361 363 362 362 362 362 362 362 362 363 364 363 362 362 362 362 361 359 358 356 353 350 346 343 340 338 336 335 334 334 336 341 348 351 351 352 352 350 349 349 350
344 357 361 362 362 362 361 360 360 360 361 362 362 362 361 361 361 360 360 358 355 353 349 346 342 340 337 336 336 336 336 335 335 334 335 340 344 349 349 350 351 349 350
348 359 360 362 361 362 360 359 358 358 359 360 360 361 361 360 360 359 358 355 353 350 346 343 340 339 338 338 337 338 339 339 340 338 330 335 338 343 348 350 350 350 349
346 354 360 362 361 361 361 359 358 358 357 358 358 359 358 358 357 356 356 355 352 346 344 342 341 341 340 340 340 341 341 343 345 340 342 345 346 336 347 350 351 350 348
344 350 360 361 361 360 360 359 358 358 358 358 358 358 357 357 356 355 355 354 351 348 345 344 345 343 342 342 342 342 343 344 342 344 347 346 345 337 345 348 349 349 349
342 347 358 361 361 361 360 360 359 358 358 358 358 358 357 356 355 355 354 353 351 350 349 347 346 347 346 344 343 343 344 345 341 344 347 348 345 337 344 347 349 350 350
343 348 354 361 360 359 359 359 358 358 357 358 358 358 357 356 355 354 354 352 351 351 349 348 347 347 347 347 345 344 344 344 344 344 344 344 341 340 347 347 349 349 350
344 346 354 357 361 360 359 358 358 358 357 357 356 356 356 356 355 354 353 352 351 351 349 348 348 348 347 347 346 345 344 345 342 343 339 340 338 341 344 347 347 348 348
341 343 350 355 355 357 357 358 358 357 357 356 357 356 356 356 355 354 351 351 351 351 350 349 349 348 347 347 347 346 344 344 342 342 341 340 340 342 345 347 347 347 345
336 341 346 350 353 354 353 356 357 358 358 357 357 357 355 353 354 353 350 351 351 351 350 350 349 349 347 346 346 345 344 340 342 340 341 339 342 342 345 346 349 347 346
332 336 343 348 351 353 351 355 356 355 356 356 356 357 355 355 355 351 352 350 351 351 350 350 350 350 346 340 341 343 340 341 342 341 341 341 343 343 344 346 350 349 348
333 335 340 347 350 350 348 350 353 353 355 356 356 357 356 353 352 352 351 351 350 349 344 344 344 341 339 340 339 339 340 342 340 341 342 342 344 344 344 347 351 350 349
332 334 338 343 345 348 347 347 349 350 351 351 353 355 354 348 348 351 348 348 350 346 345 344 340 342 342 341 339 339 339 339 338 339 341 342 344 346 346 346 349 350 349
335 335 336 341 344 346 346 344 347 349 347 349 350 353 352 349 348 348 348 347 345 345 343 341 340 340 340 341 339 339 337 338 339 339 338 341 342 345 348 349 349 351 349
336 340 339 341 344 345 345 346 346 345 345 346 346 348 351 349 348 345 345 344 343 343 341 339 338 339 338 338 338 339 339 339 339 340 338 338 342 345 346 349 350 350 348
333 339 344 341 343 341 340 344 343 342 341 341 341 346 345 346 345 345 342 341 340 341 341 340 340 339 337 338 337 338 339 340 341 342 342 339 339 343 345 347 350 350 348
326 336 346 343 341 343 343 343 340 340 340 340 340 340 342 342 342 342 337 338 338 339 337 336 336 335 336 336 336 338 339 341 342 343 342 341 343 344 346 346 348 348 347
323 327 335 346 346 342 343 342 340 343 339 339 339 339 339 340 340 338 337 340 341 337 335 336 336 337 336 337 336 338 339 340 342 341 342 344 347 347 347 345 346 345 344
322 325 330 340 348 349 342 341 338 337 337 340 338 339 341 339 338 339 338 340 341 337 337 337 338 338 338 339 336 336 340 340 341 342 343 344 346 348 349 350 350 345 344
320 322 324 326 340 349 345 342 340 335 336 337 339 341 342 342 339 340 340 340 341 340 341 341 340 338 338 339 336 336 338 341 342 342 344 344 344 347 348 348 347 345 344
318 320 323 324 327 336 343 347 346 346 343 341 341 346 346 344 344 340 337 341 341 340 343 342 340 338 339 340 336 336 332 335 339 342 343 343 345 345 345 345 345 345 345
316 319 320 322 324 326 333 340 346 347 347 346 346 346 348 348 348 347 346 345 345 343 342 343 341 342 338 338 340 338 330 327 335 338 341 341 343 342 343 344 344 344 345
313 316 318 321 323 324 327 332 342 337 338 343 347 348 351 349 348 349 350 347 346 345 347 345 343 343 342 338 336 338 339 338 329 327 335 337 339 340 342 341 341 342 343
313 314 316 320 322 325 326 328 330 337 337 343 344 352 350 349 351 350 352 349 348 347 348 346 343 341 342 341 338 338 335 335 335 329 327 331 333 337 339 339 340 340 342
313 314 315 317 320 323 323 325 330 336 339 337 341 340 344 345 348 351 351 350 350 348 347 346 345 343 343 343 342 339 333 331 332 331 330 331 329 335 335 337 337 337 339
Wind_Speed
14 22 22 18 16 15 17 18 18 19 19 18 18 17 17 16 16 15 15 14 13 13 13 12 11 11 11 10 10 9 9 9 9 9 9 8 7 6 8 6 6 6 7
22 24 27 22 19 17 17 19 19 19 19 18 19 18 18 17 16 15 14 13 12 12 12 11 10 10 10 10 10 9 8 7 8 8 7 7 6 5 4 4 4 7 7
25 24 25 23 21 20 18 18 19 20 19 19 19 18 17 16 15 15 13 13 13 12 11 10 10 10 9 10 10 9 9 7 6 6 5 5 5 3 2 2 5 6 7
23 21 23 24 21 21 20 20 19 20 19 19 19 18 17 16 14 14 13 14 14 12 11 11 10 10 10 10 9 9 9 8 7 5 4 4 2 2 1 1 4 5 6
21 23 21 24 22 21 21 21 20 20 20 19 18 18 18 16 15 14 13 13 13 12 11 11 10 10 10 10 9 8 8 8 7 5 5 3 1 4 3 1 4 4 5
23 23 24 24 23 21 19 20 20 20 20 20 20 18 18 17 15 14 14 13 12 13 12 12 10 10 10 10 9 8 7 6 5 5 3 3 3 1 5 3 2 2 5
23 21 23 24 24 23 21 20 19 20 20 20 20 20 19 18 17 15 14 13 13 13 12 12 11 10 10 10 9 8 6 5 3 3 2 1 3 1 6 4 3 4 6
22 21 21 21 21 23 22 20 20 20 21 21 21 20 19 19 18 17 15 14 13 13 12 12 11 10 9 8 9 8 7 4 5 3 3 3 1 2 7 6 3 3 6
17 18 18 20 17 18 19 20 19 18 19 20 20 20 19 18 17 17 16 14 13 12 11 11 11 10 9 8 8 7 6 5 5 3 4 4 3 4 7 6 5 5 5
13 15 16 17 18 17 16 17 17 15 15 15 15 15 15 15 14 14 13 14 13 12 12 11 11 10 9 8 7 7 7 5 5 4 4 3 4 6 5 8 8 7 6
10 13 15 17 17 16 16 15 15 16 14 12 11 11 9 10 11 13 12 12 13 12 12 12 11 11 10 9 8 8 7 4 5 4 3 3 7 6 4 8 8 7 8
13 13 13 14 15 15 12 14 15 13 12 12 12 13 11 10 8 8 8 11 11 11 10 11 11 10 10 7 6 9 6 5 5 4 4 4 8 7 5 6 8 9 9
12 11 13 11 11 13 12 10 7 8 8 9 13 11 10 8 7 8 6 7 8 11 7 9 9 9 10 7 6 6 6 7 5 5 5 6 8 8 8 7 10 10 10
14 15 13 12 10 11 9 9 9 10 10 9 10 12 9 6 8 7 7 8 7 6 8 7 6 8 9 10 9 8 9 7 5 5 5 8 9 10 9 9 11 11 10
12 16 15 12 11 11 11 10 10 10 10 10 10 12 10 9 8 8 7 7 8 8 8 7 7 7 9 10 9 9 10 9 9 6 5 7 11 12 12 12 12 12 10
8 13 15 17 17 14 13 12 9 9 9 9 9 10 13 10 8 8 8 10 9 9 8 8 7 7 8 8 9 9 10 9 9 8 7 7 11 13 13 13 14 12 10
8 9 13 14 11 13 15 13 9 7 9 10 9 10 11 9 9 11 9 9 9 8 9 7 8 7 7 8 9 7 8 10 9 9 9 7 7 12 14 12 12 12 12
5 9 7 9 13 13 12 12 11 11 10 10 9 8 10 11 10 10 6 7 9 8 8 7 7 7 7 7 6 5 7 7 7 8 8 6 7 7 7 9 11 13 14
8 7 6 5 12 13 12 11 9 10 10 9 9 8 10 12 10 8 8 8 6 8 8 8 7 7 6 7 6 6 6 6 7 6 8 7 8 7 5 7 10 13 14
9 8 7 4 5 5 6 10 8 9 10 7 9 8 11 10 12 8 10 9 8 9 9 7 9 7 6 7 5 5 6 6 6 7 7 7 8 9 8 8 7 8 13
10 10 8 5 6 10 8 8 10 12 11 10 11 12 12 11 11 11 8 8 11 11 11 9 8 7 7 6 4 6 7 8 8 7 7 7 8 8 7 7 5 5 6
12 11 10 8 4 5 8 8 8 6 9 11 10 12 14 14 13 10 10 10 12 10 12 10 10 6 7 7 4 4 4 5 6 7 6 6 7 5 6 7 7 8 8
14 12 12 12 10 6 7 8 8 7 5 6 10 11 13 16 16 16 14 13 13 12 10 11 11 11 6 6 9 4 3 5 2 3 6 6 6 6 6 7 7 8 8
12 14 15 12 12 8 5 6 11 11 11 11 11 10 10 15 16 16 15 15 13 10 11 10 9 9 8 8 5 8 4 1 4 4 3 4 4 5 5 5 5 7 7
13 12 13 14 13 12 8 7 8 12 11 11 10 11 11 10 15 17 17 15 13 11 11 10 11 12 10 8 8 5 8 5 3 5 7 5 5 4 4 5 5 5 6
12 12 11 13 15 13 12 9 10 12 13 11 12 11 9 8 10 14 15 14 13 11 11 10 11 12 10 9 8 6 6 5 8 7 7 5 4 3 3 3 5 4 5
Wind_Direction
170 159 165 170 172 161 146 143 140 137 136 140 142 143 139 140 145 146 146 148 148 147 147 142 137 129 121 116 109 103 100 100 99 98 95 94 101 115 115 112 139 127 124
152 161 167 169 171 167 154 147 143 141 140 142 142 147 143 145 148 151 150 152 152 155 150 146 139 129 127 122 118 116 111 104 99 103 103 102 94 103 147 143 145 114 144
153 159 166 169 172 167 161 154 149 146 145 147 145 146 148 150 152 151 155 157 160 159 153 148 145 136 129 123 121 117 112 109 104 102 101 104 101 83 97 192 162 157 152
155 156 168 167 175 169 166 161 157 150 151 150 149 151 152 156 157 157 157 162 165 163 158 155 147 138 131 127 125 120 117 112 108 113 131 106 107 97 68 48 165 168 162
162 159 168 167 174 174 172 166 162 157 156 155 154 156 157 160 161 163 166 168 167 165 161 158 151 145 142 138 136 133 123 123 112 144 110 87 330 145 184 153 163 179 192
165 163 163 168 171 177 179 170 165 164 162 161 161 164 163 166 168 169 171 170 171 169 169 165 161 157 155 148 144 141 139 131 158 123 108 90 341 102 202 175 176 216 195
162 168 167 170 171 178 178 177 172 169 169 168 168 169 170 172 173 173 174 175 177 173 174 171 170 169 166 161 154 153 155 131 150 144 158 342 3 171 207 185 205 227 207
161 166 170 171 176 178 176 180 178 177 178 175 173 174 176 177 177 174 176 179 183 180 180 178 177 177 174 170 167 165 164 175 174 197 218 238 35 262 208 199 198 229 223
166 166 170 174 182 184 180 180 182 184 187 179 178 179 179 180 179 178 177 180 185 186 185 184 183 183 181 183 185 184 180 180 202 208 242 242 140 281 232 217 216 228 230
172 172 174 177 181 190 190 185 184 186 197 188 182 181 183 181 182 182 179 183 188 187 188 189 190 191 188 195 196 201 206 210 225 219 228 240 263 259 241 219 219 231 239
181 181 183 180 182 191 196 192 187 185 194 192 186 184 179 193 194 190 195 182 190 191 190 191 197 198 196 200 210 220 228 236 227 229 235 172 261 255 248 217 216 223 232
205 194 191 190 188 190 197 197 199 195 198 197 196 191 200 197 204 215 200 200 202 198 198 196 199 209 205 225 207 219 236 245 241 245 246 231 254 244 232 224 224 224 225
213 219 201 192 194 201 201 199 196 197 197 200 197 195 198 194 187 203 207 201 210 204 212 203 202 221 228 227 225 233 238 237 246 247 245 237 253 252 237 240 241 236 229
204 207 213 194 192 205 209 207 203 199 200 200 198 196 194 196 197 201 206 209 211 213 209 217 219 224 234 231 234 239 242 243 242 250 251 236 251 254 250 247 246 236 228
219 208 203 194 194 197 213 219 217 213 204 206 200 199 201 202 207 199 215 215 215 212 211 214 219 221 229 236 235 236 246 247 250 251 257 227 249 249 251 245 241 233 227
264 232 208 194 190 198 210 215 216 215 212 210 210 211 207 210 209 200 210 217 222 218 214 220 219 219 230 238 235 239 248 249 248 250 252 247 233 246 246 238 231 225 221
294 262 227 204 210 196 197 211 218 206 210 215 215 213 219 217 215 216 217 220 232 219 215 216 223 227 234 235 239 242 248 247 247 247 251 249 245 233 247 255 227 213 209
316 275 248 216 210 209 204 207 209 212 209 218 215 212 203 212 224 237 228 219 235 234 213 206 217 222 230 233 232 237 239 244 251 249 246 243 241 246 220 227 237 208 200
360 336 287 228 217 208 224 218 211 216 212 220 221 214 196 207 211 224 241 246 212 232 225 204 206 221 222 233 228 233 238 242 242 248 247 240 242 249 251 242 225 208 208
344 1 352 288 296 252 207 215 220 225 227 215 217 206 203 196 195 201 232 232 211 229 229 203 203 203 229 237 227 235 242 242 246 243 244 240 238 241 245 251 231 224 223
337 348 357 353 241 220 216 214 225 227 222 222 222 224 217 210 202 195 205 213 209 228 226 202 198 203 215 218 207 226 237 228 231 239 239 241 242 239 240 238 249 251 238
324 327 332 334 331 243 229 232 227 219 229 232 224 215 210 211 208 200 200 205 222 215 215 199 197 190 219 195 216 241 241 196 215 228 232 236 241 238 232 234 253 254 257
329 327 323 321 316 294 250 242 237 232 228 221 225 223 214 204 205 204 202 212 210 215 211 198 199 206 209 192 218 256 180 227 177 176 213 233 243 244 248 245 246 243 241
322 322 317 313 310 296 282 248 235 240 232 222 228 229 215 206 205 207 209 211 210 209 212 196 197 205 203 191 200 234 270 279 225 208 201 219 229 235 230 225 226 230 232
324 322 314 309 304 300 299 261 245 244 244 241 230 233 221 202 203 205 210 203 208 209 215 195 192 202 203 198 201 174 222 231 228 252 263 208 214 213 222 223 232 232 227
319 318 313 304 299 302 304 291 257 247 239 241 235 231 222 207 204 211 206 205 204 207 207 193 202 203 201 201 200 194 173 190 209 220 243 230 228 194 229 232 234 238 234